TimePDT,TemperatureF,Dew PointF,Humidity,Sea Level PressureIn,VisibilityMPH,Wind Direction,Wind SpeedMPH,Gust SpeedMPH,PrecipitationIn,Events,Conditions,WindDirDegrees,DateUTC
12:15 AM,55.4,39.2,54,30.02,10.0,Calm,Calm,-,N/A,,Scattered Clouds,0,2012-10-10 07:15:00
12:35 AM,55.4,39.2,54,30.02,10.0,Calm,Calm,-,N/A,,Clear,0,2012-10-10 07:35:00
12:55 AM,55.4,41.0,58,30.02,10.0,NE,4.6,-,N/A,,Mostly Cloudy,50,2012-10-10 07:55:00
1:15 AM,57.2,39.2,51,30.01,10.0,Calm,Calm,-,N/A,,Overcast,0,2012-10-10 08:15:00
1:35 AM,57.2,39.2,51,30.01,10.0,Calm,Calm,-,N/A,,Overcast,0,2012-10-10 08:35:00
1:55 AM,57.2,39.2,51,30.01,10.0,NE,3.5,-,N/A,,Overcast,40,2012-10-10 08:55:00
2:15 AM,57.2,39.2,51,30.01,10.0,NE,4.6,-,N/A,,Overcast,50,2012-10-10 09:15:00
2:35 AM,57.2,39.2,51,30.02,10.0,Calm,Calm,-,N/A,,Overcast,0,2012-10-10 09:35:00
2:55 AM,57.2,39.2,51,30.01,10.0,NE,3.5,-,N/A,,Mostly Cloudy,40,2012-10-10 09:55:00
3:15 AM,57.2,39.2,51,30.00,10.0,Calm,Calm,-,N/A,,Mostly Cloudy,0,2012-10-10 10:15:00
3:35 AM,57.2,37.4,48,30.00,10.0,Calm,Calm,-,N/A,,Mostly Cloudy,0,2012-10-10 10:35:00
3:55 AM,55.4,37.4,51,29.99,10.0,Calm,Calm,-,N/A,,Mostly Cloudy,0,2012-10-10 10:55:00
4:15 AM,55.4,37.4,51,29.99,10.0,NE,3.5,-,N/A,,Partly Cloudy,50,2012-10-10 11:15:00
4:35 AM,55.4,37.4,51,29.99,10.0,Calm,Calm,-,N/A,,Clear,0,2012-10-10 11:35:00
4:55 AM,53.6,37.4,54,29.99,10.0,Calm,Calm,-,N/A,,Clear,0,2012-10-10 11:55:00
5:15 AM,53.6,37.4,54,29.98,10.0,Calm,Calm,-,N/A,,Clear,0,2012-10-10 12:15:00
5:35 AM,55.4,35.6,47,29.98,10.0,Calm,Calm,-,N/A,,Clear,0,2012-10-10 12:35:00
5:55 AM,53.6,35.6,51,29.98,10.0,Calm,Calm,-,N/A,,Clear,0,2012-10-10 12:55:00
6:15 AM,55.4,35.6,47,29.98,10.0,Calm,Calm,-,N/A,,Clear,0,2012-10-10 13:15:00
6:35 AM,55.4,35.6,47,29.99,10.0,Calm,Calm,-,N/A,,Clear,0,2012-10-10 13:35:00
6:55 AM,53.6,37.4,54,29.99,10.0,Calm,Calm,-,N/A,,Clear,0,2012-10-10 13:55:00
7:15 AM,53.6,37.4,54,29.99,10.0,Calm,Calm,-,N/A,,Clear,0,2012-10-10 14:15:00
7:35 AM,53.6,37.4,54,29.99,10.0,Calm,Calm,-,N/A,,Clear,0,2012-10-10 14:35:00
7:55 AM,55.4,37.4,51,29.99,10.0,Calm,Calm,-,N/A,,Clear,0,2012-10-10 14:55:00
8:15 AM,57.2,37.4,48,30.00,10.0,Calm,Calm,-,N/A,,Clear,0,2012-10-10 15:15:00
8:35 AM,57.2,37.4,48,30.00,10.0,Calm,Calm,-,N/A,,Clear,0,2012-10-10 15:35:00
8:55 AM,57.2,37.4,48,30.00,10.0,Calm,Calm,-,N/A,,Clear,0,2012-10-10 15:55:00
9:15 AM,57.2,39.2,51,30.00,10.0,Calm,Calm,-,N/A,,Clear,0,2012-10-10 16:15:00
9:35 AM,59.0,39.2,48,30.01,10.0,Calm,Calm,-,N/A,,Clear,0,2012-10-10 16:35:00
9:55 AM,59.0,39.2,48,30.00,10.0,NNW,5.8,-,N/A,,Clear,330,2012-10-10 16:55:00
10:15 AM,60.8,39.2,45,30.00,10.0,WNW,4.6,-,N/A,,Clear,300,2012-10-10 17:15:00
10:35 AM,60.8,37.4,42,30.00,10.0,NNW,4.6,-,N/A,,Clear,330,2012-10-10 17:35:00
10:55 AM,62.6,39.2,42,29.99,10.0,NW,5.8,-,N/A,,Clear,310,2012-10-10 17:55:00
11:15 AM,62.6,37.4,39,29.99,10.0,West,6.9,-,N/A,,Clear,280,2012-10-10 18:15:00
11:35 AM,62.6,37.4,39,29.99,10.0,NW,4.6,-,N/A,,Clear,320,2012-10-10 18:35:00
11:55 AM,64.4,37.4,37,29.98,10.0,West,5.8,-,N/A,,Clear,270,2012-10-10 18:55:00
12:15 PM,64.4,37.4,37,29.98,10.0,WNW,5.8,-,N/A,,Clear,290,2012-10-10 19:15:00
12:35 PM,64.4,39.2,40,29.98,10.0,West,8.1,-,N/A,,Clear,280,2012-10-10 19:35:00
12:50 PM,66.2,39.2,37,29.98,10.0,SW,5.8,-,N/A,,Clear,220,2012-10-10 19:50:00
1:15 PM,66.2,39.2,37,29.97,10.0,West,5.8,-,N/A,,Clear,280,2012-10-10 20:15:00
1:35 PM,64.4,39.2,40,29.97,10.0,WNW,5.8,-,N/A,,Clear,300,2012-10-10 20:35:00
1:55 PM,66.2,37.4,35,29.96,10.0,Calm,Calm,-,N/A,,Clear,0,2012-10-10 20:55:00
2:15 PM,66.2,37.4,35,29.96,10.0,Calm,Calm,-,N/A,,Clear,0,2012-10-10 21:15:00
2:35 PM,66.2,37.4,35,29.95,10.0,WNW,4.6,-,N/A,,Clear,290,2012-10-10 21:35:00
2:55 PM,66.2,39.2,37,29.95,10.0,WNW,9.2,-,N/A,,Clear,300,2012-10-10 21:55:00
3:15 PM,66.2,39.2,37,29.95,10.0,WNW,5.8,-,N/A,,Clear,290,2012-10-10 22:15:00
3:35 PM,66.2,37.4,35,29.95,10.0,West,4.6,-,N/A,,Clear,270,2012-10-10 22:35:00
3:55 PM,66.2,37.4,35,29.95,10.0,West,6.9,-,N/A,,Clear,280,2012-10-10 22:55:00
4:15 PM,66.2,37.4,35,29.94,10.0,WNW,4.6,-,N/A,,Clear,290,2012-10-10 23:15:00
4:35 PM,66.2,37.4,35,29.94,10.0,West,4.6,-,N/A,,Clear,280,2012-10-10 23:35:00
4:55 PM,66.2,37.4,35,29.94,10.0,WNW,5.8,-,N/A,,Clear,300,2012-10-10 23:55:00
5:15 PM,66.2,37.4,35,29.94,10.0,WSW,3.5,-,N/A,,Clear,250,2012-10-11 00:15:00
5:35 PM,66.2,39.2,37,29.94,10.0,Calm,Calm,-,N/A,,Clear,0,2012-10-11 00:35:00
5:55 PM,64.4,37.4,37,29.94,10.0,Calm,Calm,-,N/A,,Clear,0,2012-10-11 00:55:00
6:15 PM,64.4,39.2,40,29.95,10.0,Calm,Calm,-,N/A,,Clear,0,2012-10-11 01:15:00
6:35 PM,62.6,39.2,42,29.95,5.0,Calm,Calm,-,N/A,,Clear,0,2012-10-11 01:35:00
6:55 PM,60.8,39.2,45,29.96,10.0,Calm,Calm,-,N/A,,Clear,0,2012-10-11 01:55:00
7:15 PM,59.0,39.2,48,29.96,10.0,Calm,Calm,-,N/A,,Clear,0,2012-10-11 02:15:00
7:35 PM,59.0,39.2,48,29.97,10.0,Calm,Calm,-,N/A,,Partly Cloudy,0,2012-10-11 02:35:00
7:55 PM,59.0,39.2,48,29.97,10.0,Calm,Calm,-,N/A,,Partly Cloudy,0,2012-10-11 02:55:00
8:15 PM,59.0,41.0,51,29.97,10.0,Calm,Calm,-,N/A,,Partly Cloudy,0,2012-10-11 03:15:00
8:35 PM,59.0,41.0,51,29.97,10.0,Calm,Calm,-,N/A,,Scattered Clouds,0,2012-10-11 03:35:00
8:55 PM,59.0,41.0,51,29.97,10.0,Calm,Calm,-,N/A,,Scattered Clouds,0,2012-10-11 03:55:00
9:15 PM,57.2,39.2,51,29.97,10.0,Calm,Calm,-,N/A,,Partly Cloudy,0,2012-10-11 04:15:00
9:35 PM,57.2,41.0,55,29.97,10.0,Calm,Calm,-,N/A,,Clear,0,2012-10-11 04:35:00
9:55 PM,57.2,41.0,55,29.98,10.0,Calm,Calm,-,N/A,,Clear,0,2012-10-11 04:55:00
10:15 PM,57.2,41.0,55,29.99,10.0,East,5.8,-,N/A,,Mostly Cloudy,100,2012-10-11 05:15:00
10:35 PM,57.2,41.0,55,29.98,10.0,Calm,Calm,-,N/A,,Mostly Cloudy,0,2012-10-11 05:35:00
10:55 PM,57.2,41.0,55,29.98,10.0,Calm,Calm,-,N/A,,Scattered Clouds,0,2012-10-11 05:55:00
11:35 PM,57.2,41.0,55,29.98,10.0,Calm,Calm,-,N/A,,Scattered Clouds,0,2012-10-11 06:35:00
11:55 PM,57.2,41.0,55,29.98,10.0,Calm,Calm,-,N/A,,Scattered Clouds,0,2012-10-11 06:55:00